Location: Misciano
(43.5000°N, 11.9500°E)
Time: 07:10:34
(UTC+00:00)

Meteor 1-11 Rocket - Pass Details

Date: 13 August 2020
Orbit: 831 x 915 km, 81.2° (Epoch: 26 September)

Event Time Altitude Azimuth Distance (km) Brightness Sun altitude
Exits shadow 21:42:39 74° 250° (WSW) 901 3.7 -28.3°
Maximum altitude 21:42:56 77° 281° (W) 894 3.7 -28.3°
Drops below altitude 10° 21:48:44 10° 7° (N) 2,548 6.9 -28.8°
Sets 21:51:14 0° 9° (N) 3,504 7.7 -29.0°
